Theta_e
315 315 314 314 314 314 313 312 309 301 295 291 289 291 290 290 290 290 291 294 296 297 298 300 301 302 303 304 305 306 307 308 309 309 309 310 310 310
315 314 313 313 314 313 313 313 312 308 294 293 290 289 290 289 289 289 289 289 294 296 297 298 299 301 302 302 303 303 304 305 306 306 307 307 308 308
313 312 309 309 307 307 309 310 309 303 293 289 289 289 288 288 287 287 287 286 288 295 296 297 298 299 300 300 300 301 300 301 302 302 303 304 304 305
306 305 304 304 304 304 305 305 304 301 296 287 286 286 287 287 285 285 285 286 286 293 294 295 297 298 298 298 298 298 297 297 297 298 299 300 300 301
302 302 302 303 301 301 301 300 299 297 294 289 286 287 286 285 282 282 283 284 286 290 292 292 294 296 297 297 296 296 295 294 294 294 295 296 297 297
294 294 294 297 297 296 296 296 294 292 291 288 285 285 284 282 282 280 280 281 281 286 289 289 290 292 295 296 295 294 294 293 293 293 292 293 293 294
289 289 290 288 289 292 293 292 292 289 288 286 283 281 280 280 281 280 279 276 277 283 285 286 286 287 289 293 293 294 294 293 292 292 291 291 291 291
288 287 287 287 289 291 291 292 291 288 285 283 282 281 281 281 279 279 276 281 280 284 284 284 285 285 286 291 295 295 294 293 292 291 291 290 290 289
286 285 284 285 285 285 287 287 286 290 289 284 283 282 281 281 280 274 275 279 277 281 283 283 284 283 285 287 295 295 295 293 292 291 291 290 289 289
285 285 284 284 284 283 283 282 282 283 283 283 283 282 282 282 283 282 280 275 273 275 281 283 283 283 284 283 292 294 294 292 291 291 290 290 289 288
284 284 283 283 287 286 282 281 280 282 287 288 288 288 287 287 283 281 271 276 270 272 273 279 282 280 282 282 284 290 292 292 291 290 290 289 288 287
283 283 283 284 287 286 281 279 276 277 277 277 279 282 282 284 284 281 279 274 267 271 274 275 274 275 275 281 282 284 284 288 290 290 289 289 287 285
282 281 282 287 287 286 284 280 278 279 280 275 274 274 274 274 274 276 278 277 275 270 275 274 272 270 273 275 279 282 283 283 284 286 288 288 288 286
281 281 281 287 287 287 283 285 284 278 274 272 270 268 267 267 267 268 270 271 271 272 272 272 271 273 270 272 277 280 281 282 282 283 284 285 285 286
281 283 286 287 286 285 286 286 277 275 273 268 268 270 269 268 265 266 266 265 265 265 267 268 270 267 270 270 271 277 275 275 280 281 282 282 282 282
284 281 283 282 283 281 281 280 274 271 270 269 268 267 267 265 265 266 271 269 271 272 276 277 268 269 274 276 270 271 272 276 276 279 280 281 281 281
273 271 272 271 275 272 277 277 271 271 271 270 267 267 266 266 266 264 267 275 266 272 273 277 278 279 279 280 280 273 271 275 276 278 277 276 279 280
269 266 267 267 278 280 279 279 280 279 279 279 278 268 266 268 267 265 265 266 273 269 270 275 276 276 277 278 280 279 277 275 276 270 276 276 278 279
275 266 268 272 278 279 279 280 280 280 280 279 277 278 270 265 268 267 266 266 266 264 265 269 276 266 272 269 268 279 279 275 276 276 279 279 278 278
282 279 276 275 272 275 277 277 278 276 279 279 279 279 276 271 266 268 270 271 270 265 266 264 271 272 271 271 271 269 280 278 277 275 277 277 277 280
282 282 281 276 274 274 273 271 270 273 277 278 278 279 277 275 274 274 273 272 269 268 273 275 275 272 266 266 269 271 268 279 279 279 277 276 275 275
280 281 281 280 277 275 274 274 272 273 274 275 276 276 277 275 275 274 274 273 272 273 274 269 268 271 270 273 274 266 267 269 275 279 280 279 274 269
281 279 280 279 278 277 276 275 275 275 275 276 276 276 275 273 274 275 275 275 275 274 274 268 268 268 273 273 275 267 267 269 268 271 271 279 280 279
Wind_Speed
5 4 2 2 2 2 2 3 4 3 2 4 3 3 3 3 3 2 5 10 12 13 15 17 18 19 20 21 23 24 24 25 25 27 29 30 30 29
3 5 4 3 3 3 3 3 3 3 4 2 2 3 3 3 3 3 5 7 11 13 14 16 18 19 19 19 22 22 22 25 26 27 29 29 30 31
3 4 4 3 2 1 2 1 3 3 5 2 2 4 3 3 4 3 3 4 4 10 13 16 18 18 18 20 21 22 21 24 26 27 27 28 29 29
5 6 5 3 3 2 3 3 3 3 4 6 3 2 3 3 3 4 2 3 4 9 12 16 17 17 19 19 21 21 22 24 25 26 26 27 28 29
5 5 5 5 4 3 3 4 3 3 4 6 5 2 2 2 3 4 3 3 3 7 10 13 15 17 19 20 20 19 21 22 24 25 26 27 27 28
6 6 5 5 5 4 4 5 4 5 7 7 5 4 2 2 2 2 2 2 3 4 7 9 10 13 16 16 16 18 21 22 23 24 24 25 26 27
7 6 6 5 6 4 4 5 6 4 5 6 4 3 2 3 5 3 3 0 2 2 2 4 4 5 7 9 8 16 20 21 22 22 23 24 25 25
7 6 5 5 10 13 12 8 4 6 5 5 3 4 5 4 3 4 3 3 3 1 2 3 3 4 5 5 12 15 16 17 17 19 22 23 24 24
6 5 5 4 5 6 11 14 12 10 4 6 6 5 6 6 6 3 3 3 3 1 1 1 2 2 3 4 13 15 15 14 14 15 17 18 20 22
5 5 5 5 4 6 6 7 8 7 5 4 6 5 4 8 8 4 5 5 2 1 1 2 1 1 2 3 10 12 14 15 14 13 15 15 16 18
4 4 5 5 8 9 6 7 7 6 10 16 15 14 13 12 9 7 3 5 0 3 1 2 2 1 0 2 3 8 10 12 13 16 16 13 12 13
3 4 5 5 8 9 6 7 7 2 3 5 5 8 8 8 7 2 6 4 3 2 3 4 1 2 1 1 1 2 2 8 10 13 14 16 14 6
3 3 2 6 7 8 7 4 4 6 9 5 4 4 4 4 3 3 3 3 3 3 4 4 3 1 2 1 1 1 2 2 2 4 9 13 14 13
5 3 3 7 7 8 8 9 15 9 4 4 4 2 2 1 1 2 2 3 2 3 3 4 3 3 3 1 3 1 1 1 1 2 2 6 10 12
2 6 10 10 9 6 10 14 9 5 4 3 3 3 3 4 3 3 3 4 4 4 3 1 2 2 3 2 3 2 2 2 2 1 1 3 4 5
6 3 5 4 6 5 6 5 2 2 3 3 2 1 2 1 2 1 2 2 2 2 4 2 4 4 2 2 3 1 1 3 1 1 1 1 2 2
4 3 1 1 2 0 2 3 1 0 1 1 1 2 2 2 1 1 2 1 1 3 1 1 2 3 2 1 3 3 3 2 2 2 1 0 1 1
3 2 2 2 5 6 7 7 7 7 6 5 4 3 3 3 3 1 1 2 3 3 3 2 2 2 1 3 6 3 2 2 3 2 2 2 1 1
3 3 4 4 7 7 7 8 8 8 7 6 5 7 4 3 4 4 4 3 3 3 3 3 6 3 4 4 4 7 4 3 3 3 3 2 2 2
8 7 7 6 5 6 6 7 6 4 8 8 8 8 8 5 4 4 6 7 5 2 2 3 5 7 5 5 4 3 9 3 4 3 3 1 2 3
10 10 8 7 7 7 5 3 3 4 6 6 7 7 7 7 8 7 6 8 5 4 8 9 9 5 3 1 1 2 3 7 4 4 4 3 2 2
7 9 8 8 7 7 6 6 5 5 5 7 7 6 7 7 7 7 7 7 8 8 9 1 3 5 4 7 7 4 2 1 3 7 9 7 5 4
9 8 7 7 7 7 7 7 7 7 8 7 7 7 7 8 8 7 7 8 7 7 7 3 3 1 5 8 9 4 5 4 3 4 2 11 10 6
Wind_Direction
148 137 120 171 193 162 205 188 147 160 136 163 136 97 97 87 55 30 45 45 63 60 56 44 37 36 35 38 40 37 35 37 39 40 39 36 39 36
133 154 173 180 185 175 186 194 171 145 126 112 113 130 125 105 67 62 61 28 48 51 50 49 45 39 41 43 44 40 40 40 38 39 41 39 37 36
136 124 112 105 95 136 109 142 135 110 111 114 104 128 112 135 110 77 63 41 17 55 53 50 50 43 43 46 48 46 48 43 44 44 43 42 41 41
120 108 109 102 108 108 133 122 117 93 109 112 121 109 91 102 98 87 30 38 25 49 57 51 49 45 47 53 53 54 54 50 48 47 44 44 44 44
91 101 115 122 101 80 80 89 76 81 97 134 128 136 119 115 84 56 38 4 32 39 51 50 44 42 51 51 54 56 57 53 50 49 48 46 45 45
64 65 69 84 113 113 102 106 103 92 103 108 98 116 123 150 129 147 81 9 18 16 38 36 36 31 33 49 50 54 58 55 53 52 50 49 47 46
75 71 59 67 84 115 136 150 136 121 125 121 120 121 131 154 167 163 117 295 349 38 12 21 12 18 8 16 44 56 60 58 55 53 52 51 50 47
99 81 69 60 70 68 67 74 109 136 140 128 143 152 143 158 140 149 118 132 102 350 80 28 6 30 358 356 54 62 60 55 55 54 53 52 51 49
104 104 87 72 78 85 72 68 54 59 143 154 153 161 154 166 149 117 138 152 177 208 120 103 6 54 341 338 50 62 60 55 50 53 53 50 51 51
101 116 117 113 108 105 90 75 62 49 41 77 117 143 137 151 152 147 146 116 39 344 45 125 19 52 328 339 38 53 63 61 51 48 49 51 49 45
112 119 123 125 126 117 106 98 76 59 75 88 94 108 116 129 135 123 130 128 39 263 298 133 172 168 349 358 352 38 47 62 55 53 51 46 48 47
83 102 124 119 128 145 133 137 119 140 82 62 66 74 73 99 115 132 153 138 130 10 238 126 118 136 7 255 359 349 352 36 57 54 48 48 47 39
146 141 123 126 140 154 155 148 154 146 127 108 100 74 53 49 36 49 71 126 150 229 209 117 157 147 119 199 290 4 7 7 20 41 48 47 48 49
168 158 153 154 153 153 151 150 144 128 119 111 101 86 97 69 6 55 76 98 90 189 149 121 159 147 139 59 189 234 38 357 33 44 29 51 45 49
127 174 167 164 160 160 162 159 139 148 145 119 163 180 187 157 131 81 46 50 59 35 23 91 129 153 130 173 183 197 137 311 31 47 42 69 46 37
161 153 159 150 155 155 149 137 126 153 164 171 180 111 89 109 143 150 151 163 97 25 356 299 169 153 209 178 119 222 211 178 129 63 24 66 69 44
104 60 67 108 145 171 164 170 167 192 195 144 107 142 143 132 189 146 127 173 123 160 185 221 4 16 50 223 235 195 188 176 171 159 126 153 60 71
68 142 208 192 207 215 217 215 217 216 221 228 218 171 171 182 167 176 113 153 191 182 166 189 157 104 18 280 224 191 213 171 164 153 164 170 205 244
172 211 208 201 214 220 219 223 222 211 197 202 193 216 180 182 171 183 182 180 207 187 201 178 185 144 168 224 292 241 193 173 155 174 189 209 208 203
214 214 217 210 213 221 220 223 220 208 215 212 206 204 189 181 175 202 198 210 212 195 193 192 198 196 183 199 200 248 213 161 169 176 170 119 274 301
210 217 214 210 202 210 215 212 203 211 217 224 231 226 213 203 214 210 207 205 176 179 218 221 216 150 130 61 27 242 277 228 216 181 157 159 196 234
212 220 219 216 204 202 200 203 208 212 207 211 215 209 208 207 214 211 210 210 213 218 234 186 154 147 167 200 229 194 214 223 280 244 228 181 170 210
220 218 221 218 214 204 202 202 208 214 213 219 217 212 203 211 209 212 214 215 211 211 219 201 175 186 218 214 219 186 186 174 182 198 248 234 226 254